哎哟喂啊 aiyoweia.com 盘多多百度云搜索,无所不能下!
已收录 11857232 个分享资源 |  150 位分享达人,今日更新 16880 个资源
成功复活死亡猪脑  忘买鸡腿被妻捅死  来电显示利益链  奔驰车主拖欠钱款  张丹峰 回应出轨  高考一二本合并  昆凌 黑寡妇演员  关晓彤为鹿晗庆生  烧烤引山火罚2亿  18万只蜜蜂还活着  谢霆锋晒睡醒照  上海17岁男孩跳桥  师生送别楼管夫妇  梵高被盗画作展出  刘强东案关键证人  亚马逊退出中国  花莲县6.7级地震  马国明获街坊加油  朱丹化妆被嫌弃  陈坤为倪大红庆生  


百度云盘更新资源

 分享文件 分类 文件大小 网盘类型 浏览 收录时间
17.小米的微信营销.wmv视频19.9MB 17次 2019-04-18 06:35
堂本光一的不幸研究所 1 中文字幕 12_01_02.mp4视频211.5MB 27次 2019-04-18 06:35
sj5.mp4视频2.31GB 8次 2019-04-18 06:35
2009年世界羽毛球锦标赛女双决赛 张亚雯赵婷婷VS成淑赵芸蕾.avi视频796.26MB 3次 2019-04-18 06:34
星期三(微博@Chyetamier)文档文件夹资源大小未知 1次 2019-04-18 05:22
小说【2018.09月27日】其他文件夹资源大小未知 10次 2019-04-18 05:22
云霄.rmvb视频643.95MB 8次 2019-04-18 11:37
0317-34-62.wmv视频26.76MB 0次 2019-04-18 11:37
防拔面板。锁体_rec.avi视频205.8MB 1次 2019-04-18 11:37
内脏.avi视频690.31MB 12次 2019-04-18 08:49
02.CXF功能概述_CXF发展历史和使用CXF开发WebService服务器端.wmv视频26.26MB 4次 2019-04-18 08:49
kjsw0113.mp4视频150.14MB 4次 2019-04-18 08:49
赫海1+1=love.avi视频444.12MB 2次 2019-04-18 08:49
36定义带参数的函数.flv其他22.24MB 1次 2019-04-18 08:49
股市实战精华基础循环篇.mp4视频451.84MB 3次 2019-04-18 08:49
Thor.2011.双语字幕.HR-HDTV.AC3.1024X576.x264-人人影视制作.mkv视频1.75GB 5次 2019-04-18 08:49
股市实战精华基础均线篇(张清华).mp4视频2.13GB 0次 2019-04-18 08:49
The.Fosters.S02E20.中英字幕.HDTVrip.1024X576.mp4视频401.98MB 2次 2019-04-18 08:49
Addicted to you V5.mp4视频254.32MB 0次 2019-04-18 08:49
京东 路演.mp4视频118.55MB 3次 2019-04-18 08:49
姚贝娜音乐现场剪辑.flv其他89.44MB 0次 2019-04-18 08:49
023_car sketching.mp4视频72.08MB 17次 2019-04-16 07:45
w80高清油画视频教程 田园风景油画技法 风景油画视频 经典必看.mp4视频170.11MB 16次 2019-04-16 07:45
黑茶 金花[高清].FLV其他38.68MB 7次 2019-04-16 07:45
V50205-202611.mp4视频16.19MB 4次 2019-04-16 07:45
第一节基础课程.avi视频127.63MB 16次 2019-04-16 07:45
微小秘视频教程原版.wmv视频79.91MB 2次 2019-04-16 07:36
VTS_01_1.VOB其他1023.83MB 3次 2019-04-16 07:35
Big.Hero.6.2014.720p.BluRay.x264-SPARKS.mkv视频3.27GB 5次 2019-04-16 07:35
高下七-2.mp4视频267.22MB 4次 2019-04-16 07:26
MVI_9033.MOV其他2.7GB 2次 2019-04-16 07:26
生存战争初级电视制作.mp4视频21.79MB 3次 2019-04-16 07:26
龙腾SC3更正版.mp4视频1.46GB 0次 2019-04-16 07:26
VIDEO0041.mp4视频13.48MB 4次 2019-04-16 07:26
06.wmv视频42.58MB 3次 2019-04-15 11:20
狗狗博客.Dog.With.a.Blog.S01E20.Chs.Eng-Deefun迪幻字幕组.mp4视频109.15MB 4次 2019-04-15 11:20
1月22日陕西荣诚达菱美4S店-三菱伴我行.avi视频259.53MB 3次 2019-04-15 11:20
Mourning Becomes Electra (1947) Rosalind Russell Eng.avi视频701.06MB 3次 2019-04-15 11:20
[SumiSora][Otoboku][01][GB][RV10][600K][v2].rmvb视频108.56MB 10次 2019-04-15 11:20
V50206-114113.mp4视频49.34MB 1次 2019-04-15 11:20
第2课QQ和QQ群的设置.mp4视频45.97MB 2次 2019-04-15 11:20
双人舞吉特巴.avi视频11.26MB 4次 2019-04-15 11:20
代理培训~测试微博号.mov视频56.15MB 0次 2019-04-15 11:12
メガネWEB用.m4v视频25.32MB 8次 2019-04-15 11:12
云霄-汕头 (4).MOV其他609.36MB 4次 2019-04-15 10:55
002 张子凡《不懂带队伍:你就自己干到死》7DVD.rmvb视频435.45MB 4次 2019-04-15 10:54
猎头武士.The.Head.Hunter.2018.HD1080P.X264.AAC.English.CHS-ENG.Mp4Ba 1].mp4视频2.97GB 6次 2019-04-15 10:50
气球.Ballon.2018.BD1080P.X264.AAC.German.CHS.Mp4Ba [].mp4视频6.07GB 7次 2019-04-15 10:50
黄帝内经健康讲坛文档文件夹资源大小未知 9次 2019-04-15 01:50
Greys.Anatomy.S09其他文件夹资源大小未知 11次 2019-04-14 08:30
新浪连接文档45.47KB 2178次 2016-03-19 06:12
[米米猫]宣传中心v3.0正式版 X1文档46.73KB 1626次 2016-03-19 06:12
简约黑白线条template文档94.88KB 1315次 2016-03-19 06:12
比较大文档181.42MB 3751次 2016-03-19 06:12
美丽佳人文档51.26MB 1969次 2016-03-19 06:11
中广音乐网 音乐听光光 - 周杰伦电台专访Part1音乐11.72MB 1169次 2016-03-19 06:11
中广音乐网 音乐听光光 - 周杰伦电台专访Part2音乐9.97MB 704次 2016-03-19 06:11
中广音乐网 音乐听光光 - 周杰伦电台专访Part4音乐10.25MB 566次 2016-03-19 06:11
中广音乐网 音乐听光光 - 周杰伦电台专访完整版(1)音乐44.02MB 675次 2016-03-19 06:11
中歌榜 周杰伦- 红尘客栈1080i文档824.15MB 829次 2016-03-19 06:11
美联社2文档9.02MB 519次 2016-03-19 06:11
美联社 专访周杰伦文档33.57MB 544次 2016-03-19 06:11
百事周杰伦合辑文档121.78MB 533次 2016-03-19 06:11
《天籁村》 20130122 周杰伦部分视频117.15MB 1131次 2016-03-19 06:11
kiss文档65.07MB 662次 2016-03-19 06:11
周杰伦 - 七里香[HITO 2005]视频37.23MB 991次 2016-03-19 06:11
周杰伦 - 春天里视频77.31MB 765次 2016-03-19 06:10
u can文档36.91MB 1092次 2016-03-19 06:10
中国电影报道_青蜂侠_周杰伦特辑视频34.84MB 551次 2016-03-19 06:10
温岚爱回温演唱会与周杰合唱屋顶视频21.55MB 604次 2016-03-19 06:10
杰伦05年在日本宣传_唱的黑色幽默视频6.89MB 455次 2016-03-19 06:10
后台采访花絮 周杰伦被摸腹肌视频47.17MB 412次 2016-03-19 06:10
周杰-金甲幕後拍花絮视频34.79MB 355次 2016-03-19 06:10
金马奖_周杰伦文档39.73MB 348次 2016-03-19 06:10
2005MTV亚洲音乐大奖 周杰 - 牛 & 七里香文档57.69MB 355次 2016-03-19 06:10
新加坡RazorTV独家专访周杰伦视频41.57MB 410次 2016-03-19 06:10
头文字D时期_接受日本媒体的采访视频28.5MB 426次 2016-03-19 06:10
杰伦02年新加坡演唱会_唱的世界末日和黑色幽默视频28.21MB 438次 2016-03-19 06:10
MTV_超级盛典_周杰伦完整部分视频46.4MB 370次 2016-03-19 06:10
那些年_周杰跟完在一起的日子 其他33.77MB 375次 2016-03-19 06:10
Panasonic文档9.27MB 640次 2016-03-19 06:09
MTVCHINA 13年2月头号人物 周杰伦文档28.97MB 325次 2016-03-19 06:09
2013 0208 哎呦DJ 第四期 完整版其他37.14MB 417次 2016-03-19 06:09
Jay 偕 母 渡 元 宵 仍 然 身 视频22.75MB 836次 2016-03-19 06:09
关键时刻 20130319 台湾鬼才创作歌手周杰伦其他57.13MB 421次 2016-03-19 06:09
周杰【的行日 官方完整MV】Jay Chou A Journey Diary about Love MV其他23.1MB 420次 2016-03-19 06:09
0001.新浪网-娱乐星天地 20130322 媒体探班周杰伦遇阻其他8.73MB 382次 2016-03-19 06:09
台演:人天王_周杰视频370.32MB 380次 2016-03-19 06:09
130325_1503视频447.72MB 483次 2016-03-19 06:09
周杰伦2013魔天伦世界巡回演唱会武汉站宣传片视频47.41MB 415次 2016-03-19 06:09
邵族的故事-生境其他9.58MB 366次 2016-03-19 06:09
20130423 中国电影报道 - 周杰伦心系雅安视频32.48MB 356次 2016-03-19 06:09
北京电影节 周杰伦蓝地毯部分视频45.47MB 356次 2016-03-19 06:09
周杰伦和成龙现场接受主持人采访 其他38.45MB 354次 2016-03-19 06:09
中国电影报道 20130424 周杰伦花絮视频38.49MB 310次 2016-03-19 06:09
www.jay3q.com 开讲啦 周杰伦:你可以不平凡 高清文档182.42MB 379次 2016-03-19 06:08
周杰伦撒贝宁开讲啦现场打篮球 超清视频10.29MB 408次 2016-03-19 06:08
fraps软件3.48MB 596次 2016-03-19 06:08
纵情歌唱 - 周杰伦演唱会文档1.42GB 342次 2016-03-19 06:08
jay3q.com 周杰伦魔天伦上海站首场文档630.18MB 334次 2016-03-19 06:08

友情链接